カタログに戻る

DELTA 1 DEB

運用中LEO
NORAD 10659·DEBRIS·🇺🇸 United States

打ち上げ Jul 29, 1976 から Vandenberg Space Force Base

Loading…

次のパス (今後24時間)

TLE

最新Source: Space-Track

元期: Sep 14, 2026, 07:16 UTC

1 10659U 76077V   26257.30296984 -.00000100  00000-0 -60357-3 0  9998
2 10659 102.1988 188.9510 0174902 286.0856 231.0560 12.09431659213409

AllMySatでDELTA 1 DEBをリアルタイム追跡

Download on the App Store